Regional Weather Roundup
Issued by NWS

Home | Current Version | Previous Version | Graphics & Text | Print | Product List | Glossary On
Versions: 1 2 3 4 5 6 7 8 9 10 11 12 13 14 15 16 17 18 19 20 21 22 23 24 25 26 27 28 29 30 31 32 33 34 35 36 37 38 39 40 41 42 43 44 45 46 47 48 49 50
000
ASUS43 KDMX 250303
RWRIA

WEATHER ROUNDUP FOR IOWA
NATIONAL WEATHER SERVICE DES MOINES IA
1000 PM CDT TUE MAY 24 2016

NOTE: "FAIR" INDICATES FEW OR NO CLOUDS BELOW 12,000 FEET WITH NO
SIGNIFICANT WEATHER AND/OR OBSTRUCTIONS TO VISIBILITY.

* - THESE STATIONS ARE NOT NWS STATIONS...THUS NOT UNDER NWS
QUALITY CONTROL.  THEY ALSO DO NOT REPORT WEATHER SUCH
AS PRECIPITATION OR FOG.

IAZ001>003-012>014-020>022-031>034-043>046-250400-
   NORTHWEST IOWA

CITY           SKY/WX    TMP DP  RH WIND       PRES   REMARKS
CARROLL *      CLEAR     70  66  88 E6        29.88S
CHEROKEE *     CLEAR     70  65  82 SE5       29.88R
DENISON *      CLEAR     70  63  78 SE5       29.86S
LE MARS *      CLEAR     72  64  78 SE6       29.87R
ORANGE CITY *  CLEAR     73  64  73 SE8       29.87S
SHELDON *      CLEAR     72  63  73 SE12      29.86R
SIOUX CITY     CLEAR     70  64  81 SE8       29.85R
SPENCER        CLEAR     71  61  70 SE9       29.89R
STORM LAKE *   CLEAR     70  63  78 SE7       29.90S
$$

IAZ055>058-069>071-079>083-090>094-250400-
   SOUTHWEST IOWA

CITY           SKY/WX    TMP DP  RH WIND       PRES   REMARKS
ATLANTIC *     CLEAR     73  61  64 SE5       29.89R
AUDUBON *      CLEAR     66  63  88 CALM      29.90R
CLARINDA *       N/A     72  63  73 MISG      29.89S
COUNCIL BLFS * CLEAR     72  63  73 SE9G16    29.86S
CRESTON *      CLEAR     68  61  77 SE8       29.92R
HARLAN  *        N/A    N/A N/A N/A MISG        N/A
LAMONI         PTCLDY    69  64  84 S6        29.91S
RED OAK *      CLEAR     72  63  73 SE8       29.88S
SHENANDOAH *   CLEAR     72  64  78 SE12      29.87S
$$

IAZ047>049-059>061-072>074-084-250400-
   CENTRAL IOWA

CITY           SKY/WX    TMP DP  RH WIND       PRES   REMARKS
AMES           CLEAR     70  63  78 CALM      29.89S
ANKENY *       CLEAR     72  63  73 S5        29.90R
BOONE *        CLEAR     70  63  78 E3        29.89S
CHARITON *     CLEAR     70  63  78 SE7       29.92S
DES MOINES     PTCLDY    74  61  63 SE8       29.90R
GRINNELL*      CLEAR     73  63  68 S8        29.92R
KNOXVILLE *    CLEAR     72  63  73 S8        29.91R
MARSHALLTOWN   CLEAR     72  61  68 CALM      29.89S
NEWTON *       CLEAR     72  64  78 S9        29.91R
PELLA *        CLEAR     72  64  75 S6        29.93R
PERRY *          N/A     72  64  78 SE6       29.89S
$$

IAZ004>006-015-016-023>025-035-036-250400-
   NORTH CENTRAL IOWA

CITY           SKY/WX    TMP DP  RH WIND       PRES   REMARKS
ALGONA *       CLEAR     70  63  78 SE6       29.90S
CLARION *      CLEAR     70  66  88 E6        29.90S
ESTHERVILLE    CLEAR     70  59  68 SE10      29.90R
FORT DODGE *   CLEAR     70  61  73 CALM      29.91R
MASON CITY     CLEAR     68  63  84 CALM      29.92S
FOREST CITY *  CLEAR     63  63 100 CALM      29.91S
WEBSTER CITY * CLEAR     70  64  83 SE6       29.89S
IOWA FALLS *     N/A     73  59  60 SE3       29.92R
$$

IAZ007>011-017>019-026>030-037>042-050>054-066-250400-
   NORTHEAST IOWA

CITY           SKY/WX    TMP DP  RH WIND       PRES   REMARKS
CEDAR RAPIDS   CLEAR     72  65  78 S7        29.92R
CHARLES CITY * CLEAR     73  59  60 E7        29.92S
CLINTON *      PTCLDY    74  59  59 S5        29.94R
DECORAH *      CLEAR     72  61  68 SE6       29.92S
DUBUQUE        CLOUDY    70  61  73 CALM      29.95R
MONTICELLO *   CLOUDY    77  63  61 CALM      29.92S
OELWEIN *      CLEAR     73  61  64 E5        29.93R
WATERLOO       CLEAR     70  61  73 CALM      29.90R
$$

IAZ064-065-067-068-078-250400-
   EAST CENTRAL IOWA

CITY           SKY/WX    TMP DP  RH WIND       PRES   REMARKS
DAVENPORT      CLOUDY    77  62  59 S9        29.94R
IOWA CITY      CLEAR     76  65  68 S7        29.94R
MT. PLEASANT * CLOUDY    73  64  73 S5        29.95R
MUSCATINE *    CLOUDY    75  64  69 S8        29.94R
QUAD CITIES    CLOUDY    77  61  57 S8        29.93R
$$

IAZ062-063-075>077-085>089-095>099-250400-
   SOUTHEAST IOWA

CITY           SKY/WX    TMP DP  RH WIND       PRES   REMARKS
BURLINGTON     CLOUDY    68  63  84 S3        29.95R
FAIRFIELD *      N/A    N/A N/A N/A MISG        N/A
FORT MADISON * CLOUDY    70  63  78 S3        29.96R
KEOKUK *       CLOUDY    72  64  78 S5        29.95R
OSKALOOSA *      N/A     69  63  79 S9        29.93R
OTTUMWA        CLEAR     70  63  78 S6        29.93R
WASHINGTON *   CLEAR     72  66  83 S7        29.95R
$$

ABBREVIATIONS USED IN REMARKS
   TC - TEMPERATURES IN CELSIUS
  WCI - WIND CHILL INDEX
   HX - HEAT INDEX
  VSB - VISIBILITY
$$





USA.gov is the U.S. government's official web portal to all federal, state and local government web resources and services.